Simultaneous Nadir Overpasses (SNOs) Predictions

Prediction of SNOs between METOP-B and NPP Satellite Orbit:

Table of predicted SNOs for the next 14.0 days since TLE Epoch: 11/9/2024
Index Date (METOP-B) Time (METOP-B) Lat,Lon (METOP-B) SZA (METOP-B ) Date (NPP) Time (NPP) Lat,Lon (NPP) SZA (NPP ) Distance(km) Time Diff (sec)
1 11/14/2024 07:56:44 74.19, 52.07 92.53 11/14/2024 07:55:36 74.18, 49.67 92.60 72.71 68
2 11/14/2024 08:47:28 -74.08,-140.87 87.57 11/14/2024 08:46:18 -74.09,-142.80 87.49 58.89 70
3 11/14/2024 09:38:12 73.85, 25.91 92.23 11/14/2024 09:36:59 73.84, 25.13 92.26 24.32 73
4 11/14/2024 10:28:55 -73.79,-166.90 87.82 11/14/2024 10:27:41 -73.76,-167.36 87.83 14.70 74
5 11/14/2024 11:19:37 73.66, 0.13 92.07 11/14/2024 11:18:25 73.65, 0.20 92.07 2.47 72
6 11/14/2024 12:10:19 -73.65, 167.44 87.93 11/14/2024 12:09:09 -73.67, 167.48 87.91 2.31 70
7 11/14/2024 13:00:58 73.67, -25.19 92.10 11/14/2024 12:59:55 73.66, -25.19 92.10 0.95 63
8 11/14/2024 13:51:40 -73.66, 142.12 87.90 11/14/2024 13:50:39 -73.68, 142.09 87.88 1.94 61
9 11/14/2024 14:42:19 73.68, -50.50 92.13 11/14/2024 14:41:25 73.67, -50.58 92.12 2.69 54
10 11/14/2024 15:33:01 -73.67, 116.80 87.88 11/14/2024 15:32:09 -73.68, 116.70 87.85 3.69 52
11 11/14/2024 16:23:41 73.64, -75.94 92.11 11/14/2024 16:22:54 73.63, -75.86 92.10 2.68 47
12 11/14/2024 17:14:23 -73.63, 91.37 87.90 11/14/2024 17:13:38 -73.64, 91.42 87.88 2.03 45
13 11/14/2024 18:05:02 73.65,-101.25 92.13 11/14/2024 18:04:24 73.63,-101.25 92.13 1.33 38
14 11/14/2024 18:55:44 -73.64, 66.06 87.87 11/14/2024 18:55:08 -73.65, 66.03 87.85 1.56 36
15 11/14/2024 19:46:23 73.66,-126.57 92.16 11/14/2024 19:45:54 73.64,-126.65 92.15 2.80 29
16 11/14/2024 20:37:05 -73.65, 40.74 87.84 11/14/2024 20:36:38 -73.66, 40.63 87.83 3.50 27
17 11/14/2024 21:27:45 73.61,-152.00 92.14 11/14/2024 21:27:23 73.60,-151.92 92.13 2.90 22
18 11/14/2024 22:18:27 -73.61, 15.31 87.86 11/14/2024 22:18:07 -73.62, 15.36 87.85 1.82 20
19 11/14/2024 23:09:06 73.62,-177.32 92.17 11/14/2024 23:08:53 73.61,-177.32 92.15 1.66 13
20 11/14/2024 23:59:48 -73.62, -10.01 87.84 11/14/2024 23:59:37 -73.63, -10.04 87.83 1.25 11
21 11/15/2024 00:50:27 73.63, 157.36 92.19 11/15/2024 00:50:23 73.62, 157.29 92.18 2.93 4
22 11/15/2024 01:41:09 -73.63, -35.33 87.81 11/15/2024 01:41:07 -73.63, -35.43 87.80 3.36 2
23 11/15/2024 02:31:49 73.59, 131.93 92.17 11/15/2024 02:31:52 73.58, 132.01 92.15 3.12 3
24 11/15/2024 03:22:31 -73.59, -60.76 87.83 11/15/2024 03:22:36 -73.59, -60.71 87.83 1.69 5
25 11/15/2024 04:13:10 73.60, 106.61 92.20 11/15/2024 04:13:22 73.58, 106.62 92.18 1.96 12
26 11/15/2024 05:03:52 -73.60, -86.08 87.80 11/15/2024 05:04:06 -73.60, -86.10 87.80 1.01 14
27 11/15/2024 05:54:31 73.61, 81.30 92.23 11/15/2024 05:54:52 73.59, 81.22 92.21 3.08 21
28 11/15/2024 06:45:13 -73.61,-111.39 87.78 11/15/2024 06:45:36 -73.61,-111.50 87.77 3.26 23
29 11/15/2024 07:35:53 73.57, 55.86 92.21 11/15/2024 07:36:21 73.55, 55.95 92.18 3.32 28
30 11/15/2024 08:26:35 -73.56,-136.82 87.80 11/15/2024 08:27:05 -73.57,-136.77 87.80 1.62 30
31 11/15/2024 09:17:14 73.58, 30.55 92.23 11/15/2024 09:17:51 73.56, 30.55 92.21 2.22 37
32 11/15/2024 10:07:56 -73.57,-162.14 87.77 11/15/2024 10:08:35 -73.58,-162.17 87.77 0.85 39
33 11/15/2024 10:58:35 73.59, 5.23 92.26 11/15/2024 10:59:21 73.57, 5.16 92.24 3.21 46
34 11/15/2024 11:49:17 -73.58, 172.54 87.74 11/15/2024 11:50:05 -73.58, 172.44 87.74 3.20 48
35 11/15/2024 12:39:57 73.55, -20.20 92.24 11/15/2024 12:40:51 73.58, -20.24 92.26 3.35 54
36 11/15/2024 13:30:39 -73.54, 147.11 87.76 11/15/2024 13:31:34 -73.54, 147.16 87.77 1.60 55
37 11/15/2024 14:21:18 73.56, -45.52 92.27 11/15/2024 14:22:20 73.54, -45.51 92.24 2.44 62
38 11/15/2024 15:12:00 -73.55, 121.79 87.74 11/15/2024 15:13:04 -73.55, 121.77 87.74 0.79 64
39 11/15/2024 16:02:38 73.57, -70.84 92.29 11/15/2024 16:03:49 73.54, -70.91 92.26 3.34 71
40 11/15/2024 16:53:20 -73.56, 96.47 87.71 11/15/2024 16:54:33 -73.56, 96.37 87.72 3.17 73
41 11/15/2024 17:44:04 73.32, -96.72 92.08 11/15/2024 17:45:16 73.40, -95.96 92.13 25.71 72
42 11/15/2024 18:34:47 -73.27, 70.49 87.96 11/15/2024 18:35:58 -73.32, 71.55 87.95 34.35 71
43 11/15/2024 19:25:31 73.03,-122.69 91.83 11/15/2024 19:26:39 73.06,-120.57 91.79 68.77 68
44 11/15/2024 20:16:14 -72.98, 44.52 88.22 11/15/2024 20:17:22 -73.03, 46.81 88.24 74.81 68



Historial Predications of SNOs between METOP-B and NPP
